[[{"header":{"parameterUnit":"m.s-1","parameterCategory":1,"la1":30.2991,"la2":30.254,"lo1":-89.0895,"lo2":-89.0444,"dy":0.0017,"dx":0.0017,"nx":28,"ny":28,"refTime":"2025-09-01T03:00:00:Z","depth":0,"parameterNumber":2,"parameterNumberName":"U-component_of_WINDS"},"data":[0,0,0,0,0,0,0,0,0,0,0,0,0,0,0,0,0,0,0,0,0,0,0,0,0,0,0,0,0,0,0,0,0,0,0,0,0,0,0,0,0,0,0,0,0,0,0,0,0,0,0,0,0,0,0,0,0,0,-2.1934,-2.1935,0,-2.2077,-2.2078,-2.208,-2.2065,-2.2063,-2.206,-2.2058,-2.2208,-2.2214,-2.222,0,0,0,0,0,0,0,0,0,0,0,0,0,-2.1651,-2.1656,-2.1933,-2.1935,-2.1937,-2.2076,-2.2078,-2.208,-2.2065,-2.2063,-2.206,-2.2057,-2.2206,-2.2214,-2.2221,0,0,0,0,0,0,0,0,0,0,0,0,0,-2.1782,-2.1658,-2.1933,-2.1946,-2.1949,-2.2076,-2.2078,-2.2081,-2.2066,-2.2062,-2.2059,-2.2056,-2.2204,-2.2213,-2.2222,-2.2346,0,0,-2.225,-2.2254,0,0,0,0,0,0,0,0,-2.1774,-2.1792,-2.1943,-2.1946,-2.1949,-2.2049,-2.2034,-2.217,-2.2067,-2.2022,-2.2058,-2.2054,-2.2158,-2.2171,-2.2206,-2.2353,-2.236,-2.2251,-2.2256,-2.226,-2.2263,0,0,0,0,0,0,0,-2.1765,-2.1786,-2.199,-2.1945,-2.1949,-2.1946,-2.1961,-2.2059,-2.2107,-2.2025,-2.2024,-2.2041,-2.216,-2.2197,-2.2209,-2.2362,-2.225,-2.2259,-2.2264,-2.2268,-2.262,-2.2624,0,0,0,0,0,0,-2.1753,-2.1779,-2.1986,-2.1994,-2.1851,-2.1954,-2.1971,-2.2021,-2.2106,-2.2116,-2.2044,-2.204,-2.2183,-2.2198,-2.2214,-2.2366,-2.226,-2.2269,-2.2274,-2.2616,-2.2621,-2.2625,0,0,0,0,0,0,-2.1747,-2.1771,-2.198,-2.1886,-2.1913,-2.1962,-2.2019,-2.2025,-2.2062,-2.2121,-2.2129,-2.2073,-2.2181,-2.2201,-2.2313,-2.2371,-2.2273,-2.2281,-2.2612,-2.2618,-2.2623,-2.267,0,0,0,0,0,0,-2.1739,-2.1769,-2.1816,-2.1887,-2.1918,-2.2076,-2.2022,-2.203,-2.2078,-2.2074,-2.215,-2.2159,-2.218,-2.23,-2.2323,-2.2382,-2.2288,-2.2607,-2.2614,-2.2621,-2.2663,-2.2676,-2.2687,0,0,0,0,0,-2.1728,-2.1824,-2.1818,-2.1843,-2.1977,-2.2079,-2.2096,-2.2117,-2.2082,-2.213,-2.2168,-2.2157,-2.2361,-2.2311,-2.2337,-2.24,-2.2603,-2.2612,-2.262,-2.2658,-2.2674,-2.2687,0,0,0,0,0,0,-2.1759,-2.1834,-2.1828,-2.1949,-2.2008,-2.2076,-2.2137,-2.2133,-2.2203,-2.2197,-2.222,-2.2237,-2.2351,-2.2386,-2.233,-2.2525,-2.2478,-2.2492,-2.2497,-2.2513,-2.2525,-2.2514,-2.2296,0,0,0,0,0,-2.1779,-2.1855,-2.1916,-2.2018,-2.2047,-2.2087,-2.2132,-2.2143,-2.2205,-2.223,-2.2275,-2.2337,-2.2415,-2.2466,-2.2541,-2.2668,-2.2685,-2.2724,-2.2736,-2.2746,-2.2758,-2.2829,-2.2847,-2.2654,-2.2653,-2.2653,0,0,-2.1823,-2.1873,-2.192,-2.2025,-2.2071,-2.215,-2.2108,-2.2193,-2.2252,-2.2243,-2.2351,-2.2387,-2.2458,-2.2578,-2.2634,-2.2612,-2.2815,-2.2757,-2.2764,-2.2771,-2.284,-2.2858,-2.2874,-2.2659,-2.2658,-2.2657,0,0,-2.1943,-2.1988,-2.2077,-2.2125,-2.2195,-2.2221,-2.2243,-2.2313,-2.2336,-2.2445,-2.244,-2.2511,-2.2645,-2.2695,-2.2738,-2.2878,-2.2871,-2.2902,-2.2965,-2.3034,-2.305,-2.3063,-2.3113,-2.3131,-2.2914,-2.2914,-2.2914,0,-2.1988,-2.2105,-2.2124,-2.221,-2.2257,-2.2251,-2.2343,-2.2388,-2.248,-2.2513,-2.2487,-2.2655,-2.2702,-2.2835,-2.2869,-2.2904,-2.293,-2.2893,-2.3046,-2.306,-2.3073,-2.3121,-2.314,-2.2917,-2.2917,-2.2917,-2.2916,0,-2.2158,-2.2239,-2.2303,-2.2391,-2.2445,-2.2534,-2.2567,-2.262,-2.2626,-2.2655,-2.2767,-2.2824,-2.291,-2.2942,-2.295,-2.3077,-2.3061,-2.304,-2.2993,-2.3094,-2.314,-2.3158,-2.2922,-2.2921,-2.292,-2.2919,0,0,-2.23,-2.2397,-2.242,-2.246,-2.2538,-2.2602,-2.2691,-2.2775,-2.282,-2.2884,-2.2959,-2.3073,-2.3054,-2.3103,-2.3117,-2.3177,-2.3285,-2.3149,-2.3151,-2.3173,-2.3429,-2.3444,-2.3465,-2.3281,-2.3284,-2.3287,-2.3423,0,-2.2427,-2.2582,-2.2602,-2.274,-2.2816,-2.2813,-2.289,-2.2947,-2.2978,-2.3048,-2.3082,-2.3162,-2.3131,-2.3161,-2.322,-2.3259,-2.3337,-2.325,-2.3352,-2.3356,-2.3334,-2.3489,-2.3505,-2.363,-2.3441,-2.3444,-2.3446,0,-2.2596,-2.2663,-2.2809,-2.2877,-2.291,-2.2979,-2.3057,-2.3124,-2.3189,-2.3207,-2.3262,-2.3268,-2.3361,-2.331,-2.344,-2.338,-2.3424,-2.3449,-2.3455,-2.3465,-2.3407,-2.3503,-2.367,-2.3689,-2.3475,-2.3472,-2.347,0,-2.2685,-2.2812,-2.2916,-2.2951,-2.3033,-2.3081,-2.3118,-2.318,-2.3229,-2.3298,-2.3331,-2.3411,-2.3454,-2.3517,-2.3545,-2.3505,-2.3673,-2.3624,-2.3691,-2.369,-2.3726,-2.3723,-2.3902,-2.3755,-2.3754,-2.3754,-2.3753,0,-2.2824,-2.2913,-2.2957,-2.3021,-2.3121,-2.3144,-2.3243,-2.3278,-2.3334,-2.3405,-2.3408,-2.3475,-2.3508,-2.3581,-2.3604,-2.3708,-2.3728,-2.3746,-2.375,-2.3745,-2.3743,-2.3774,-2.3765,-2.3759,-2.3758,-2.3757,-2.3756,0,-2.294,-2.2973,-2.3085,-2.3154,-2.3173,-2.3244,-2.3304,-2.3366,-2.3396,-2.3487,-2.3509,-2.3557,-2.3643,-2.3677,-2.3783,-2.3798,-2.3918,-2.3916,-2.3895,-2.3897,-2.3961,-2.3955,-2.4167,-2.4196,-2.4029,-2.403,-2.4032,0,-2.3026,-2.3095,-2.3171,-2.3218,-2.3256,-2.3333,-2.3383,-2.3409,-2.3461,-2.3541,-2.3595,-2.368,-2.375,-2.3888,-2.3933,-2.4014,-2.4014,-2.4083,-2.4027,-2.4019,-2.4015,-2.4011,-2.4018,-2.4093,-2.4095,-2.4096,-2.4097,0,-2.3177,-2.319,-2.3261,-2.3339,-2.3398,-2.3461,-2.3522,-2.3561,-2.3597,-2.3656,-2.3743,-2.3797,-2.3905,-2.399,-2.4074,-2.4114,-2.4112,-2.4115,-2.4135,-2.413,-2.4115,-2.4124,-2.3923,-2.411,-2.4109,-2.4108,-2.4107,-2.4106,-2.328,-2.3341,-2.3404,-2.3484,-2.3532,-2.359,-2.3652,-2.369,-2.3762,-2.3851,-2.3863,-2.3957,-2.4022,-2.4134,-2.4177,-2.4252,-2.4234,-2.4263,-2.427,-2.4277,-2.4281,-2.4103,-2.4268,-2.4267,-2.4267,-2.4267,-2.4266,0,-2.343,-2.3471,-2.3544,-2.3629,-2.3692,-2.3684,-2.3752,-2.3806,-2.3888,-2.3948,-2.4017,-2.4118,-2.4201,-2.4253,-2.4337,-2.4387,-2.4389,-2.4408,-2.4405,-2.4414,-2.4292,-2.4266,-2.4406,-2.4406,-2.4406,-2.4406,-2.4406,-2.4406,-2.3516,-2.3618,-2.3639,-2.3766,-2.3807,-2.3897,-2.3937,-2.399,-2.4038,-2.4151,-2.4219,-2.4252,-2.431,-2.4398,-2.4475,-2.4488,-2.4519,-2.454,-2.4552,-2.4437,-2.4422,-2.4409,-2.4385,-2.4547,-2.4547,-2.4668,-2.4669,-2.467]},{"header":{"parameterUnit":"m.s-1","parameterCategory":1,"la1":30.2991,"la2":30.254,"lo1":-89.0895,"lo2":-89.0444,"dy":0.0017,"dx":0.0017,"nx":28,"ny":28,"refTime":"2025-09-01T03:00:00:Z","depth":0,"parameterNumber":3,"parameterNumberName":"V-component_of_WINDS"},"data":[0,0,0,0,0,0,0,0,0,0,0,0,0,0,0,0,0,0,0,0,0,0,0,0,0,0,0,0,0,0,0,0,0,0,0,0,0,0,0,0,0,0,0,0,0,0,0,0,0,0,0,0,0,0,0,0,0,0,-2.5242,-2.5242,0,-2.528,-2.528,-2.5281,-2.5258,-2.5257,-2.5256,-2.5255,-2.5291,-2.5293,-2.5295,0,0,0,0,0,0,0,0,0,0,0,0,0,-2.5146,-2.5148,-2.5242,-2.5242,-2.5243,-2.528,-2.528,-2.5281,-2.5258,-2.5257,-2.5256,-2.5255,-2.529,-2.5293,-2.5295,0,0,0,0,0,0,0,0,0,0,0,0,0,-2.5186,-2.5149,-2.5242,-2.5236,-2.5236,-2.528,-2.528,-2.5281,-2.5259,-2.5257,-2.5255,-2.5254,-2.529,-2.5292,-2.5295,-2.5346,0,0,-2.5304,-2.5306,0,0,0,0,0,0,0,0,-2.5184,-2.519,-2.5236,-2.5237,-2.5236,-2.5263,-2.526,-2.5302,-2.5259,-2.525,-2.5255,-2.5253,-2.5283,-2.5286,-2.5297,-2.5347,-2.5349,-2.5305,-2.5306,-2.5308,-2.5308,0,0,0,0,0,0,0,-2.5181,-2.5188,-2.5257,-2.5237,-2.5237,-2.523,-2.5234,-2.5268,-2.5275,-2.5251,-2.5249,-2.5254,-2.5282,-2.5294,-2.5297,-2.5349,-2.5304,-2.5307,-2.5309,-2.531,-2.5442,-2.5444,0,0,0,0,0,0,-2.5179,-2.5186,-2.5255,-2.5258,-2.5206,-2.5234,-2.5238,-2.5256,-2.5274,-2.5276,-2.5255,-2.5253,-2.529,-2.5294,-2.5298,-2.5358,-2.5308,-2.531,-2.5312,-2.544,-2.5442,-2.5444,0,0,0,0,0,0,-2.5177,-2.5186,-2.5254,-2.5221,-2.523,-2.5237,-2.5257,-2.5257,-2.5269,-2.5278,-2.5279,-2.5266,-2.5289,-2.5294,-2.5334,-2.5359,-2.5312,-2.5314,-2.5438,-2.5441,-2.5443,-2.5478,0,0,0,0,0,0,-2.5175,-2.5185,-2.5205,-2.5222,-2.5231,-2.529,-2.5259,-2.5259,-2.5274,-2.5271,-2.5288,-2.5289,-2.5288,-2.533,-2.5337,-2.5362,-2.5317,-2.5436,-2.5439,-2.5443,-2.5475,-2.5482,-2.5487,0,0,0,0,0,-2.5172,-2.5213,-2.5207,-2.5215,-2.5257,-2.5292,-2.5297,-2.5295,-2.5277,-2.5296,-2.5302,-2.5289,-2.5355,-2.5334,-2.5342,-2.5368,-2.5434,-2.5438,-2.5442,-2.5472,-2.548,-2.5487,0,0,0,0,0,0,-2.5198,-2.5215,-2.5208,-2.5257,-2.5273,-2.5288,-2.5313,-2.5304,-2.5325,-2.5321,-2.5317,-2.5321,-2.5362,-2.5369,-2.5345,-2.5417,-2.5392,-2.5397,-2.5412,-2.542,-2.5426,-2.5423,-2.5319,0,0,0,0,0,-2.521,-2.5238,-2.5251,-2.5292,-2.5301,-2.5305,-2.532,-2.5317,-2.5334,-2.534,-2.5349,-2.5364,-2.5388,-2.5404,-2.5427,-2.5475,-2.5478,-2.5497,-2.5504,-2.5509,-2.5514,-2.5539,-2.5548,-2.5457,-2.5457,-2.5457,0,0,-2.5234,-2.5247,-2.5265,-2.5298,-2.531,-2.5338,-2.5311,-2.5342,-2.5362,-2.5344,-2.5383,-2.5389,-2.5406,-2.545,-2.547,-2.5458,-2.5539,-2.5514,-2.5518,-2.552,-2.5544,-2.5553,-2.556,-2.546,-2.5459,-2.5459,0,0,-2.5292,-2.5305,-2.5341,-2.5354,-2.5373,-2.5376,-2.5384,-2.54,-2.5404,-2.5443,-2.543,-2.5453,-2.5495,-2.5508,-2.5519,-2.5582,-2.557,-2.5589,-2.5622,-2.5647,-2.5654,-2.566,-2.5682,-2.569,-2.5594,-2.5594,-2.5594,0,-2.532,-2.5362,-2.536,-2.5392,-2.5406,-2.5392,-2.5428,-2.544,-2.5465,-2.5475,-2.5461,-2.5513,-2.5523,-2.557,-2.5585,-2.5595,-2.5604,-2.5587,-2.5653,-2.566,-2.5665,-2.5686,-2.5694,-2.5596,-2.5596,-2.5596,-2.5595,0,-2.5395,-2.5424,-2.545,-2.5476,-2.5494,-2.5527,-2.5529,-2.5546,-2.5542,-2.5546,-2.5584,-2.5596,-2.5621,-2.5631,-2.5627,-2.5677,-2.5669,-2.5654,-2.5628,-2.5676,-2.5696,-2.5704,-2.5599,-2.5598,-2.5598,-2.5597,0,0,-2.5471,-2.5495,-2.5505,-2.5516,-2.5536,-2.5558,-2.559,-2.5615,-2.563,-2.5648,-2.5674,-2.5709,-2.5696,-2.5709,-2.5706,-2.5728,-2.5775,-2.571,-2.571,-2.5721,-2.5831,-2.5842,-2.5851,-2.5768,-2.5769,-2.5771,-2.5829,0,-2.553,-2.5588,-2.5587,-2.564,-2.5666,-2.5653,-2.5681,-2.5695,-2.57,-2.5722,-2.5726,-2.5751,-2.5731,-2.5739,-2.576,-2.5765,-2.5797,-2.5761,-2.5791,-2.5793,-2.5788,-2.5861,-2.5873,-2.5928,-2.5837,-2.5838,-2.5839,0,-2.5608,-2.5629,-2.5685,-2.57,-2.5711,-2.5736,-2.5759,-2.5781,-2.5796,-2.5798,-2.5812,-2.5805,-2.5837,-2.581,-2.5852,-2.5828,-2.584,-2.5844,-2.5846,-2.5849,-2.5819,-2.5866,-2.5946,-2.5954,-2.5851,-2.585,-2.5849,0,-2.5658,-2.57,-2.5738,-2.5748,-2.5767,-2.5785,-2.5794,-2.5808,-2.5823,-2.5842,-2.5851,-2.5874,-2.5886,-2.5903,-2.5901,-2.5882,-2.5944,-2.5917,-2.5946,-2.5946,-2.5959,-2.5959,-2.6042,-2.5968,-2.5967,-2.5967,-2.5967,0,-2.5724,-2.5759,-2.5761,-2.5785,-2.5823,-2.582,-2.5858,-2.5864,-2.5877,-2.5901,-2.589,-2.5913,-2.5909,-2.5932,-2.5931,-2.5966,-2.5971,-2.5972,-2.5972,-2.5974,-2.5973,-2.5981,-2.5978,-2.5969,-2.5969,-2.5968,-2.5968,0,-2.5786,-2.5789,-2.5831,-2.5846,-2.585,-2.5877,-2.5889,-2.5911,-2.5914,-2.5945,-2.5951,-2.5956,-2.5982,-2.5982,-2.6011,-2.601,-2.6053,-2.6048,-2.6048,-2.6047,-2.6075,-2.6072,-2.6167,-2.6179,-2.6097,-2.6097,-2.6098,0,-2.5828,-2.5855,-2.5872,-2.5888,-2.5898,-2.5924,-2.5939,-2.5937,-2.5953,-2.5973,-2.5992,-2.6017,-2.6036,-2.6078,-2.6083,-2.6105,-2.61,-2.6132,-2.6103,-2.6104,-2.61,-2.6099,-2.6101,-2.6137,-2.6138,-2.6139,-2.6139,0,-2.5903,-2.5903,-2.5926,-2.595,-2.5968,-2.5987,-2.6003,-2.6017,-2.6016,-2.6035,-2.6061,-2.6077,-2.6106,-2.6131,-2.6152,-2.6159,-2.6149,-2.6148,-2.6156,-2.6158,-2.6157,-2.6158,-2.6063,-2.6146,-2.6146,-2.6145,-2.6145,-2.6144,-2.5956,-2.5979,-2.5995,-2.6021,-2.6033,-2.6049,-2.607,-2.6076,-2.6099,-2.6124,-2.612,-2.615,-2.6164,-2.6191,-2.62,-2.6223,-2.6211,-2.6223,-2.6225,-2.6228,-2.6231,-2.6154,-2.6226,-2.6226,-2.6226,-2.6226,-2.6226,0,-2.603,-2.6039,-2.6063,-2.6087,-2.6107,-2.6097,-2.6115,-2.6132,-2.6158,-2.6172,-2.6192,-2.6222,-2.6246,-2.6253,-2.6275,-2.6291,-2.6287,-2.6297,-2.6296,-2.6298,-2.624,-2.6231,-2.63,-2.63,-2.63,-2.63,-2.63,-2.63,-2.6071,-2.6108,-2.611,-2.6154,-2.6163,-2.6192,-2.6203,-2.6217,-2.6229,-2.6263,-2.6283,-2.6287,-2.6298,-2.6322,-2.6342,-2.6343,-2.6352,-2.6364,-2.6364,-2.6309,-2.6302,-2.6295,-2.6286,-2.6366,-2.6366,-2.6419,-2.642,-2.642]}]]